This is the latest recevied weather packets stored in our database for station/object SP1BMW-13. If no packets are shown the sender has not sent any weather packets the latest 10 day(s).
| Time | Temp. | Humidity | Pressure | Rain* | Wind** | Luminosity | Snow |
|---|---|---|---|---|---|---|---|
| 1778163055 | 11.67° C | 59% | 1014.9 hPa | 0 mm | 0.89 m/s, 70° | 157 W/m² | - |
| 1778162999 | 11.67° C | 58% | 1014.8 hPa | 0 mm | 0 m/s | 158 W/m² | - |
| 1778162935 | 11.67° C | 57% | 1014.9 hPa | 0 mm | 0.89 m/s, 30° | 159 W/m² | - |
| 1778162875 | 11.67° C | 58% | 1014.7 hPa | 0 mm | 1.34 m/s, 62° | 161 W/m² | - |
| 1778162815 | 11.67° C | 57% | 1014.8 hPa | 0 mm | 1.79 m/s, 134° | 162 W/m² | - |
| 1778162755 | 11.67° C | 56% | 1014.8 hPa | 0 mm | 3.13 m/s, 344° | 164 W/m² | - |
| 1778162695 | 11.67° C | 58% | 1014.9 hPa | 0 mm | 1.79 m/s, 350° | 165 W/m² | - |
| 1778162636 | 11.67° C | 57% | 1014.8 hPa | 0 mm | 1.34 m/s, 321° | 166 W/m² | - |
| 1778162575 | 11.67° C | 57% | 1014.7 hPa | 0 mm | 1.79 m/s, 298° | 167 W/m² | - |
| 1778162515 | 11.67° C | 56% | 1014.9 hPa | 0 mm | 0.89 m/s, 278° | 167 W/m² | - |
| 1778162455 | 11.67° C | 57% | 1014.9 hPa | 0 mm | 1.34 m/s, 320° | 168 W/m² | - |
| 1778162395 | 11.67° C | 57% | 1014.8 hPa | 0 mm | 1.79 m/s, 332° | 169 W/m² | - |
| 1778162338 | 11.67° C | 57% | 1014.6 hPa | 0 mm | 0.89 m/s, 331° | 169 W/m² | - |
| 1778162275 | 11.67° C | 56% | 1014.6 hPa | 0 mm | 1.34 m/s, 39° | 170 W/m² | - |
| 1778162215 | 11.67° C | 56% | 1014.7 hPa | 0 mm | 0.89 m/s, 37° | 171 W/m² | - |
| 1778162155 | 11.67° C | 56% | 1014.9 hPa | 0 mm | 1.34 m/s, 38° | 171 W/m² | - |
| 1778162095 | 11.67° C | 56% | 1014.7 hPa | 0 mm | 1.34 m/s, 22° | 172 W/m² | - |
| 1778162035 | 11.67° C | 57% | 1014.6 hPa | 0 mm | 0.89 m/s, 112° | 172 W/m² | - |
| 1778161975 | 12.22° C | 57% | 1015 hPa | 0 mm | 2.24 m/s, 344° | 172 W/m² | - |
| 1778161916 | 12.22° C | 55% | 1014.7 hPa | 0 mm | 2.68 m/s, 39° | 173 W/m² | - |
| 1778161855 | 12.22° C | 56% | 1014.8 hPa | 0 mm | 1.34 m/s, 142° | 175 W/m² | - |
| 1778161795 | 12.22° C | 57% | 1014.7 hPa | 0 mm | 0.45 m/s, 49° | 177 W/m² | - |
| 1778161735 | 12.22° C | 57% | 1014.5 hPa | 0 mm | 0.89 m/s, 358° | 179 W/m² | - |
| 1778161675 | 12.22° C | 57% | 1014.7 hPa | 0 mm | 0.45 m/s, 62° | 182 W/m² | - |
| 1778161615 | 12.22° C | 57% | 1014.5 hPa | 0 mm | 0.45 m/s, 72° | 183 W/m² | - |
* Rain latest hour (hover to see other rain measurements)
** Current wind speed in m/s (hover to see current wind gust speed)